[[{"header":{"parameterUnit":"m.s-1","parameterCategory":1,"la1":30.2991,"la2":30.254,"lo1":-89.0895,"lo2":-89.0444,"dy":0.0017,"dx":0.0017,"nx":28,"ny":28,"refTime":"2024-12-07T09:00:00:Z","depth":0,"parameterNumber":2,"parameterNumberName":"U-component_of_WINDS"},"data":[0,0,0,0,0,0,0,0,0,0,0,0,0,0,0,0,0,0,0,0,0,0,0,0,0,0,0,0,0,0,0,0,0,0,0,0,0,0,0,0,0,0,0,0,0,0,0,0,0,0,0,0,0,0,0,0,0,0,-2.9837,-2.9838,0,-2.9908,-2.9909,-2.991,-2.9821,-2.9818,-2.9814,-2.9811,-2.9889,-2.9894,-2.9899,0,0,0,0,0,0,0,0,0,0,0,0,0,-2.963,-2.9634,-2.9837,-2.9838,-2.9839,-2.9908,-2.9909,-2.991,-2.9821,-2.9817,-2.9813,-2.981,-2.9888,-2.9894,-2.99,0,0,0,0,0,0,0,0,0,0,0,0,0,-2.9713,-2.9636,-2.9837,-2.9803,-2.9801,-2.9908,-2.9909,-2.991,-2.9822,-2.9817,-2.9812,-2.9808,-2.9886,-2.9893,-2.9901,-3.0046,0,0,-2.9924,-2.9927,0,0,0,0,0,0,0,0,-2.9708,-2.972,-2.9807,-2.9805,-2.9803,-2.985,-2.9864,-2.9956,-2.9824,-2.9814,-2.9811,-2.9805,-2.9881,-2.9888,-2.9913,-3.005,-3.0053,-2.9925,-2.9929,-2.9933,-2.9935,0,0,0,0,0,0,0,-2.9702,-2.9717,-2.9865,-2.9808,-2.9806,-2.9786,-2.9792,-2.9881,-2.9874,-2.9815,-2.9808,-2.9818,-2.9879,-2.9906,-2.9914,-3.0054,-2.9925,-2.9931,-2.9936,-2.9939,-3.0315,-3.032,0,0,0,0,0,0,-2.97,-2.9712,-2.9863,-2.9867,-2.9742,-2.9793,-2.98,-2.984,-2.9873,-2.9873,-2.9822,-2.9813,-2.9895,-2.9905,-2.9916,-3.0089,-2.9933,-2.994,-2.9944,-3.031,-3.0316,-3.0322,0,0,0,0,0,0,-2.9696,-2.9714,-2.986,-2.9788,-2.9805,-2.9802,-2.9848,-2.9844,-2.9871,-2.9878,-2.9877,-2.985,-2.9891,-2.9905,-3.0014,-3.0091,-2.9943,-2.995,-3.0303,-3.0312,-3.0319,-3.0437,0,0,0,0,0,0,-2.969,-2.9713,-2.9767,-2.979,-2.9809,-2.9956,-2.9852,-2.9849,-2.9884,-2.9873,-2.9905,-2.9905,-2.9889,-3.0003,-3.0022,-3.0099,-2.9956,-3.0297,-3.0307,-3.0317,-3.0426,-3.0448,-3.0466,0,0,0,0,0,-2.9683,-2.9799,-2.9771,-2.9789,-2.9877,-2.996,-2.9972,-2.9949,-2.989,-2.9946,-2.995,-2.9904,-3.0079,-3.0015,-3.0035,-3.0116,-3.0292,-3.0304,-3.0316,-3.0417,-3.0443,-3.0466,0,0,0,0,0,0,-2.9787,-2.9801,-2.977,-2.9896,-2.9928,-2.9945,-3.0014,-2.9977,-3.0028,-3.0016,-2.9987,-2.9995,-3.0111,-3.0124,-3.0052,-3.0259,-3.0176,-3.0193,-3.0246,-3.0271,-3.0291,-3.0286,-2.9963,0,0,0,0,0,-2.9824,-2.9889,-2.9899,-3.0009,-3.0026,-3.0018,-3.0053,-3.0033,-3.0065,-3.0078,-3.0091,-3.0125,-3.0188,-3.023,-3.0288,-3.0427,-3.0433,-3.0492,-3.0512,-3.0529,-3.0544,-3.0619,-3.0646,-3.0362,-3.0362,-3.0362,0,0,-2.9903,-2.9918,-2.9961,-3.003,-3.0052,-3.0122,-3.003,-3.0107,-3.0159,-3.0091,-3.0194,-3.0204,-3.0241,-3.0366,-3.0421,-3.038,-3.0624,-3.0544,-3.0557,-3.0564,-3.0634,-3.0661,-3.0685,-3.037,-3.0369,-3.0367,0,0,-3.0081,-3.0099,-3.0193,-3.0216,-3.025,-3.0243,-3.0266,-3.029,-3.0293,-3.0396,-3.0346,-3.0408,-3.0517,-3.0545,-3.0573,-3.0762,-3.0722,-3.0782,-3.0888,-3.0962,-3.0984,-3.1004,-3.1072,-3.1097,-3.0797,-3.0797,-3.0797,0,-3.0175,-3.0276,-3.0246,-3.0327,-3.036,-3.0299,-3.0395,-3.0419,-3.0472,-3.0496,-3.0449,-3.0583,-3.0604,-3.0734,-3.078,-3.0805,-3.0831,-3.0779,-3.0983,-3.1002,-3.102,-3.1085,-3.1111,-3.0804,-3.0803,-3.0803,-3.0802,0,-3.039,-3.0461,-3.0533,-3.0583,-3.0623,-3.0711,-3.0697,-3.0741,-3.0717,-3.0716,-3.0822,-3.0844,-3.0906,-3.0935,-3.0913,-3.1063,-3.1037,-3.0987,-3.0904,-3.1055,-3.1116,-3.114,-3.0814,-3.0812,-3.081,-3.0808,0,0,-3.0637,-3.0668,-3.0695,-3.0717,-3.0749,-3.0805,-3.0891,-3.0949,-3.0989,-3.1026,-3.1099,-3.1192,-3.1145,-3.1178,-3.1158,-3.1223,-3.1372,-3.1165,-3.1165,-3.1204,-3.154,-3.1578,-3.1607,-3.1345,-3.135,-3.1353,-3.1537,0,-3.0816,-3.0962,-3.0938,-3.1081,-3.1147,-3.109,-3.1165,-3.1194,-3.1196,-3.1253,-3.1255,-3.1322,-3.1255,-3.1274,-3.1336,-3.1341,-3.144,-3.1327,-3.1414,-3.1418,-3.1407,-3.1639,-3.1679,-3.1852,-3.1561,-3.1565,-3.1568,0,-3.1044,-3.1088,-3.1238,-3.126,-3.1287,-3.1354,-3.1406,-3.1461,-3.1493,-3.149,-3.1526,-3.1495,-3.1582,-3.1496,-3.1617,-3.1542,-3.1576,-3.1584,-3.159,-3.1598,-3.1503,-3.1654,-3.1906,-3.1932,-3.1604,-3.1602,-3.1599,0,-3.121,-3.1308,-3.1409,-3.143,-3.1458,-3.1507,-3.1521,-3.1548,-3.1585,-3.1631,-3.1655,-3.1711,-3.1742,-3.1787,-3.1772,-3.1711,-3.1897,-3.181,-3.1898,-3.1899,-3.194,-3.1938,-3.2202,-3.1961,-3.1961,-3.196,-3.196,0,-3.1413,-3.1507,-3.1484,-3.1547,-3.1651,-3.1623,-3.1727,-3.1734,-3.1759,-3.1823,-3.1778,-3.184,-3.1816,-3.1877,-3.1866,-3.1968,-3.1983,-3.1983,-3.198,-3.1988,-3.1988,-3.2011,-3.1999,-3.1967,-3.1966,-3.1964,-3.1963,0,-3.1617,-3.1605,-3.1712,-3.173,-3.1736,-3.1812,-3.1828,-3.1888,-3.1885,-3.1967,-3.1985,-3.1982,-3.2051,-3.204,-3.2118,-3.211,-3.2238,-3.2219,-3.2227,-3.2223,-3.2312,-3.2304,-3.2601,-3.2639,-3.2372,-3.2375,-3.2377,0,-3.1748,-3.1818,-3.1843,-3.1881,-3.1899,-3.1963,-3.1999,-3.1975,-3.2015,-3.2057,-3.2112,-3.2177,-3.2228,-3.2341,-3.2347,-3.2406,-3.2389,-3.2489,-3.2398,-3.2404,-3.2392,-3.2388,-3.2395,-3.2507,-3.251,-3.2513,-3.2515,0,-3.1981,-3.1972,-3.2025,-3.2078,-3.2122,-3.2163,-3.2199,-3.2234,-3.2213,-3.2261,-3.233,-3.2369,-3.2447,-3.2513,-3.2568,-3.2585,-3.2548,-3.2543,-3.2567,-3.2577,-3.2578,-3.2579,-3.2277,-3.2537,-3.2535,-3.2533,-3.2532,-3.2531,-3.2153,-3.2213,-3.2239,-3.2301,-3.2325,-3.236,-3.2417,-3.2421,-3.2477,-3.2538,-3.252,-3.2599,-3.263,-3.27,-3.2723,-3.2785,-3.2749,-3.2783,-3.2792,-3.2801,-3.2812,-3.2568,-3.2795,-3.2795,-3.2794,-3.2794,-3.2793,0,-3.2385,-3.2398,-3.2455,-3.2506,-3.2555,-3.2513,-3.2551,-3.2596,-3.2665,-3.2696,-3.2746,-3.2827,-3.289,-3.29,-3.296,-3.3009,-3.2993,-3.3025,-3.3022,-3.3027,-3.2841,-3.2814,-3.3037,-3.3037,-3.3037,-3.3037,-3.3037,-3.3037,-3.2511,-3.261,-3.2604,-3.2716,-3.2729,-3.2805,-3.283,-3.2863,-3.2887,-3.2978,-3.303,-3.3035,-3.3058,-3.312,-3.3177,-3.3178,-3.3203,-3.3242,-3.3238,-3.3064,-3.304,-3.3016,-3.2992,-3.3248,-3.3248,-3.3418,-3.342,-3.3421]},{"header":{"parameterUnit":"m.s-1","parameterCategory":1,"la1":30.2991,"la2":30.254,"lo1":-89.0895,"lo2":-89.0444,"dy":0.0017,"dx":0.0017,"nx":28,"ny":28,"refTime":"2024-12-07T09:00:00:Z","depth":0,"parameterNumber":3,"parameterNumberName":"V-component_of_WINDS"},"data":[0,0,0,0,0,0,0,0,0,0,0,0,0,0,0,0,0,0,0,0,0,0,0,0,0,0,0,0,0,0,0,0,0,0,0,0,0,0,0,0,0,0,0,0,0,0,0,0,0,0,0,0,0,0,0,0,0,0,-1.2859,-1.2859,0,-1.2805,-1.2804,-1.2804,-1.277,-1.2769,-1.2769,-1.2769,-1.2711,-1.271,-1.2708,0,0,0,0,0,0,0,0,0,0,0,0,0,-1.2931,-1.293,-1.2859,-1.2859,-1.2858,-1.2805,-1.2804,-1.2804,-1.277,-1.2769,-1.2769,-1.2769,-1.2712,-1.271,-1.2708,0,0,0,0,0,0,0,0,0,0,0,0,0,-1.289,-1.2929,-1.286,-1.2835,-1.2832,-1.2805,-1.2804,-1.2803,-1.277,-1.2769,-1.2769,-1.2769,-1.2712,-1.271,-1.2708,-1.2701,0,0,-1.2702,-1.2701,0,0,0,0,0,0,0,0,-1.2893,-1.2888,-1.2839,-1.2837,-1.2833,-1.2794,-1.2808,-1.2769,-1.277,-1.2793,-1.2769,-1.2769,-1.2739,-1.2734,-1.2725,-1.2698,-1.2696,-1.2702,-1.27,-1.2699,-1.2699,0,0,0,0,0,0,0,-1.2895,-1.289,-1.2838,-1.2838,-1.2835,-1.2825,-1.2819,-1.28,-1.2768,-1.2791,-1.2789,-1.2783,-1.2737,-1.2727,-1.2723,-1.2695,-1.2702,-1.27,-1.2699,-1.2698,-1.2657,-1.2657,0,0,0,0,0,0,-1.2903,-1.2892,-1.284,-1.2836,-1.2863,-1.2824,-1.2818,-1.2807,-1.2768,-1.2762,-1.2783,-1.2781,-1.2731,-1.2726,-1.2721,-1.2709,-1.2699,-1.2698,-1.2696,-1.2657,-1.2657,-1.2657,0,0,0,0,0,0,-1.2904,-1.2898,-1.2842,-1.2864,-1.2856,-1.2823,-1.2812,-1.2806,-1.2796,-1.2762,-1.2756,-1.2779,-1.273,-1.2724,-1.2706,-1.2706,-1.2697,-1.2695,-1.2657,-1.2657,-1.2657,-1.2685,0,0,0,0,0,0,-1.2906,-1.2899,-1.2897,-1.2864,-1.2855,-1.2829,-1.2812,-1.2805,-1.2792,-1.279,-1.2756,-1.2751,-1.2729,-1.2709,-1.2704,-1.2703,-1.2693,-1.2656,-1.2657,-1.2657,-1.2684,-1.2686,-1.2688,0,0,0,0,0,-1.2909,-1.2907,-1.2897,-1.2891,-1.2851,-1.2829,-1.2823,-1.28,-1.2793,-1.2789,-1.2768,-1.2752,-1.2707,-1.2707,-1.2701,-1.27,-1.2656,-1.2657,-1.2657,-1.2683,-1.2686,-1.2688,0,0,0,0,0,0,-1.294,-1.2902,-1.2891,-1.2878,-1.2857,-1.2823,-1.2819,-1.2804,-1.2784,-1.2782,-1.2752,-1.2745,-1.2729,-1.2713,-1.2714,-1.269,-1.268,-1.2679,-1.2701,-1.2704,-1.2706,-1.271,-1.2691,0,0,0,0,0,-1.2946,-1.2932,-1.2899,-1.289,-1.288,-1.2851,-1.2841,-1.2824,-1.2801,-1.2791,-1.2768,-1.2746,-1.2726,-1.2714,-1.2694,-1.2681,-1.2672,-1.2677,-1.2679,-1.2681,-1.268,-1.267,-1.2672,-1.2658,-1.2658,-1.2658,0,0,-1.2957,-1.2934,-1.2927,-1.2896,-1.2878,-1.2862,-1.2844,-1.2829,-1.2817,-1.2789,-1.277,-1.2752,-1.2725,-1.2709,-1.27,-1.2694,-1.2682,-1.2681,-1.2683,-1.2682,-1.2671,-1.2672,-1.2673,-1.2659,-1.2659,-1.2658,0,0,-1.2969,-1.2951,-1.2942,-1.2924,-1.2896,-1.2877,-1.2874,-1.2842,-1.283,-1.2811,-1.2789,-1.2773,-1.2741,-1.2722,-1.2708,-1.2711,-1.2695,-1.2705,-1.2716,-1.2707,-1.2708,-1.2708,-1.2708,-1.2709,-1.2705,-1.2705,-1.2705,0,-1.2986,-1.2963,-1.2938,-1.2924,-1.2911,-1.2885,-1.2874,-1.2857,-1.2825,-1.2815,-1.2809,-1.2767,-1.2746,-1.2725,-1.2725,-1.2715,-1.271,-1.2709,-1.271,-1.271,-1.271,-1.271,-1.271,-1.2706,-1.2706,-1.2706,-1.2706,0,-1.2985,-1.2969,-1.2964,-1.2934,-1.292,-1.2907,-1.2879,-1.2867,-1.2852,-1.2832,-1.2812,-1.2787,-1.2761,-1.2754,-1.2739,-1.273,-1.2727,-1.2716,-1.2705,-1.2714,-1.2713,-1.2712,-1.2708,-1.2708,-1.2707,-1.2707,0,0,-1.3016,-1.2971,-1.297,-1.2955,-1.2922,-1.2909,-1.2894,-1.287,-1.2859,-1.2837,-1.2824,-1.2796,-1.2785,-1.2769,-1.2751,-1.2743,-1.2745,-1.2732,-1.2731,-1.2735,-1.2732,-1.274,-1.274,-1.2734,-1.2734,-1.2734,-1.2734,0,-1.3023,-1.2997,-1.2973,-1.2955,-1.294,-1.2914,-1.2901,-1.2879,-1.286,-1.2842,-1.2821,-1.2802,-1.2789,-1.2779,-1.277,-1.2747,-1.2744,-1.2746,-1.272,-1.2719,-1.2727,-1.274,-1.2749,-1.275,-1.2733,-1.2733,-1.2733,0,-1.3028,-1.3007,-1.2988,-1.2955,-1.2947,-1.2936,-1.2911,-1.2895,-1.2868,-1.2855,-1.2837,-1.2817,-1.2799,-1.279,-1.2764,-1.2766,-1.2753,-1.274,-1.274,-1.2736,-1.2727,-1.2736,-1.275,-1.275,-1.2733,-1.2733,-1.2733,0,-1.3051,-1.3018,-1.3002,-1.299,-1.2952,-1.2945,-1.2928,-1.2901,-1.2887,-1.2865,-1.2855,-1.283,-1.2816,-1.2797,-1.2771,-1.2767,-1.2746,-1.2736,-1.2734,-1.2734,-1.2731,-1.2731,-1.2743,-1.2724,-1.2724,-1.2724,-1.2724,0,-1.3061,-1.305,-1.3012,-1.3002,-1.2988,-1.296,-1.2947,-1.2928,-1.2904,-1.2889,-1.2865,-1.2851,-1.2817,-1.2798,-1.2778,-1.2758,-1.2752,-1.274,-1.2735,-1.2742,-1.2743,-1.2733,-1.2732,-1.2724,-1.2724,-1.2724,-1.2724,0,-1.3085,-1.306,-1.304,-1.3005,-1.2996,-1.2987,-1.2957,-1.2945,-1.2924,-1.2905,-1.2899,-1.2866,-1.2843,-1.2815,-1.2782,-1.2768,-1.275,-1.2743,-1.276,-1.2756,-1.2756,-1.2756,-1.2761,-1.2759,-1.2742,-1.2742,-1.2743,0,-1.3093,-1.3084,-1.3048,-1.3037,-1.3021,-1.3002,-1.2988,-1.2959,-1.2945,-1.2913,-1.2905,-1.288,-1.2858,-1.2822,-1.2794,-1.2769,-1.276,-1.2763,-1.2756,-1.2763,-1.2759,-1.2759,-1.2758,-1.2765,-1.2765,-1.2766,-1.2766,0,-1.311,-1.3097,-1.3078,-1.3053,-1.3037,-1.3016,-1.2994,-1.2985,-1.2952,-1.2937,-1.2913,-1.2896,-1.2863,-1.2838,-1.2808,-1.279,-1.2772,-1.2768,-1.2766,-1.2774,-1.2784,-1.2777,-1.2764,-1.2768,-1.2768,-1.2768,-1.2768,-1.2768,-1.3125,-1.3115,-1.3088,-1.3067,-1.3047,-1.3027,-1.3014,-1.2992,-1.2971,-1.2943,-1.2926,-1.2903,-1.2874,-1.2833,-1.2815,-1.2795,-1.2789,-1.2786,-1.2785,-1.2785,-1.2787,-1.2787,-1.279,-1.2789,-1.2789,-1.2789,-1.2789,0,-1.3139,-1.312,-1.3101,-1.3071,-1.3054,-1.3039,-1.3014,-1.3,-1.2979,-1.2955,-1.2934,-1.2906,-1.2881,-1.2851,-1.2823,-1.2813,-1.2804,-1.2807,-1.2807,-1.2803,-1.2795,-1.2799,-1.2814,-1.2814,-1.2814,-1.2814,-1.2814,-1.2814,-1.3145,-1.3127,-1.3111,-1.3082,-1.3063,-1.304,-1.3026,-1.3007,-1.2987,-1.2957,-1.2936,-1.2917,-1.289,-1.286,-1.2836,-1.2827,-1.2818,-1.2823,-1.2812,-1.2805,-1.2803,-1.2801,-1.2805,-1.2822,-1.2822,-1.2822,-1.2822,-1.2822]}]]